This is the latest recevied weather packets stored in our database for station/object CX5ACA-13. If no packets are shown the sender has not sent any weather packets the latest 10 day(s).
| Time | Temp. | Humidity | Pressure | Rain* | Wind** | Luminosity | Snow |
|---|---|---|---|---|---|---|---|
| 1777900930 | 14.44° C | 72% | 1014.8 hPa | 0 mm | - | 164 W/m² | - |
| 1777900628 | 14.44° C | 73% | 1014.6 hPa | 0 mm | - | 126 W/m² | - |
| 1777900324 | 14.44° C | 73% | 1014.6 hPa | 0 mm | - | 105 W/m² | - |
| 1777900022 | 14.44° C | 73% | 1014.9 hPa | 0 mm | - | 101 W/m² | - |
| 1777899717 | 14.44° C | 73% | 1014.8 hPa | 0 mm | - | 103 W/m² | - |
| 1777899415 | 14.44° C | 74% | 1014.8 hPa | 0 mm | - | 117 W/m² | - |
| 1777899113 | 14.44° C | 73% | 1014.9 hPa | 0 mm | - | 104 W/m² | - |
| 1777898810 | 14.44° C | 73% | 1014.8 hPa | 0 mm | - | 155 W/m² | - |
| 1777898507 | 14.44° C | 73% | 1014.8 hPa | 0 mm | - | 323 W/m² | - |
| 1777898205 | 13.89° C | 74% | 1014.9 hPa | 0 mm | - | 163 W/m² | - |
| 1777897902 | 13.89° C | 74% | 1014.8 hPa | 0 mm | - | 128 W/m² | - |
| 1777897597 | 13.89° C | 74% | 1014.7 hPa | 0 mm | - | 146 W/m² | - |
| 1777897293 | 13.89° C | 74% | 1014.5 hPa | 0 mm | - | 161 W/m² | - |
| 1777896990 | 13.89° C | 75% | 1014.6 hPa | 0 mm | - | 88 W/m² | - |
| 1777896687 | 13.33° C | 75% | 1014.3 hPa | 0 mm | - | 88 W/m² | - |
| 1777896383 | 13.33° C | 75% | 1014.3 hPa | 0 mm | - | 73 W/m² | - |
| 1777896082 | 13.33° C | 75% | 1014.3 hPa | 0 mm | - | 48 W/m² | - |
| 1777895780 | 13.33° C | 75% | 1014.5 hPa | 0 mm | - | 59 W/m² | - |
| 1777895476 | 13.33° C | 75% | 1014.5 hPa | 0 mm | - | 78 W/m² | - |
| 1777895174 | 13.33° C | 75% | 1014.5 hPa | 0 mm | - | 75 W/m² | - |
| 1777894871 | 13.33° C | 75% | 1014.4 hPa | 0 mm | - | 53 W/m² | - |
| 1777894568 | 13.33° C | 74% | 1014.5 hPa | 0 mm | - | 48 W/m² | - |
| 1777894266 | 13.33° C | 74% | 1014.6 hPa | 0 mm | - | 51 W/m² | - |
| 1777893963 | 13.33° C | 74% | 1014.5 hPa | 0 mm | - | 54 W/m² | - |
| 1777893659 | 13.33° C | 74% | 1014.4 hPa | 0 mm | - | 55 W/m² | - |
* Rain latest hour (hover to see other rain measurements)
** Current wind speed in m/s (hover to see current wind gust speed)